This is the latest recevied weather packets stored in our database for station/object N1ORT. If no packets are shown the sender has not sent any weather packets the latest 10 day(s).
| Time | Temp. | Humidity | Pressure | Rain* | Wind** | Luminosity | Snow |
|---|---|---|---|---|---|---|---|
| 1777548112 | 6.67° C | 99% | 1006.6 hPa | 0 mm | - | 49 W/m² | - |
| 1777547808 | 6.67° C | 99% | 1006.5 hPa | 0 mm | - | 45 W/m² | - |
| 1777547504 | 6.67° C | 99% | 1006.5 hPa | 0 mm | - | 28 W/m² | - |
| 1777547203 | 6.67° C | 99% | 1006.7 hPa | 0.51 mm | - | 28 W/m² | - |
| 1777546899 | 6.67° C | 99% | 1006.7 hPa | 0 mm | - | 23 W/m² | - |
| 1777546596 | 6.67° C | 99% | 1006.7 hPa | 0 mm | - | 20 W/m² | - |
| 1777546292 | 6.67° C | 99% | 1006.5 hPa | 0 mm | - | 21 W/m² | - |
| 1777545991 | 6.11° C | 99% | 1006.6 hPa | 0 mm | - | 21 W/m² | - |
| 1777545686 | 6.11° C | 99% | 1006.6 hPa | 0 mm | - | 21 W/m² | - |
| 1777545383 | 6.67° C | 99% | 1006.7 hPa | 0 mm | - | 22 W/m² | - |
| 1777545080 | 6.67° C | 99% | 1006.6 hPa | 0.51 mm | - | 15 W/m² | - |
| 1777544777 | 6.11° C | 99% | 1006.5 hPa | 0.51 mm | - | 13 W/m² | - |
| 1777544473 | 6.11° C | 99% | 1006.4 hPa | 0 mm | - | 10 W/m² | - |
| 1777544169 | 6.11° C | 99% | 1006.6 hPa | 1.27 mm | - | 11 W/m² | - |
| 1777543867 | 6.67° C | 99% | 1006.6 hPa | 1.27 mm | - | 9 W/m² | - |
| 1777543563 | 6.67° C | 99% | 1006.5 hPa | 0.51 mm | - | 7 W/m² | - |
| 1777543259 | 6.11° C | 99% | 1006.5 hPa | 0 mm | - | 5 W/m² | - |
| 1777542955 | 6.67° C | 99% | 1006.4 hPa | 0.51 mm | - | 3 W/m² | - |
| 1777542651 | 6.11° C | 99% | 1006.6 hPa | 0.51 mm | - | 2 W/m² | - |
| 1777542348 | 6.11° C | 99% | 1006.7 hPa | 0.51 mm | - | 1 W/m² | - |
| 1777542045 | 6.11° C | 99% | 1006.6 hPa | 0 mm | - | 1 W/m² | - |
| 1777541743 | 6.11° C | 99% | 1006.8 hPa | 0 mm | - | 0 W/m² | - |
| 1777541439 | 6.11° C | 99% | 1006.5 hPa | 0 mm | - | 0 W/m² | - |
| 1777541135 | 6.11° C | 99% | 1006.6 hPa | 0 mm | - | 0 W/m² | - |
| 1777540832 | 6.67° C | 99% | 1006.6 hPa | 0 mm | - | 0 W/m² | - |
* Rain latest hour (hover to see other rain measurements)
** Current wind speed in m/s (hover to see current wind gust speed)